Grafton, ND

2:39 PM CST on November 22, 2017 (GMT -0600)
Grafton Municipal

Weather History for KGAF - December, 2013

Change the Weather History Date:

Tuesday, December 17, 2013

  Actual Average Record
Temperature  
Mean Temperature 13 °F -  
Max Temperature 28 °F 19 °F 45 °F (1962)
Min Temperature -2 °F 5 °F -22 °F (1951)
Degree Days  
Heating Degree Days 52    
Moisture  
Dew Point 3 °F    
Average Humidity 78    
Maximum Humidity 93    
Minimum Humidity 66    
Precipitation  
Precipitation 0.00 in - - ()
Sea Level Pressure  
Sea Level Pressure 29.99 in    
Wind  
Wind Speed 18 mph (NNW)    
Max Wind Speed 31 mph    
Max Gust Speed 39 mph    
Visibility 8 miles    
Events Rain , Snow    
Averages and records for this station are not official NWS values.
T = Trace of Precipitation, MM = Missing Value Source: NWS Daily Summary

Daily Weather History Graph

Daily Weather History Graph

Search for Another Location

Airport or City:

Trip Planner

Search our weather history database for the weather conditions in past years. The results will help you decide how hot, cold, wet, or windy it might be!

Date:

Astronomy

Dec. 17, 2013 Rise Set
Actual Time 8:16 AM CST 4:35 PM CST
Civil Twilight 7:39 AM CST 5:12 PM CST
Nautical Twilight 6:59 AM CST 5:52 PM CST
Astronomical Twilight 6:21 AM CST 6:30 PM CST
Moon 5:21 PM CST (12/17) 8:08 AM CST (12/17)
Length of Visible Light 9h 33m
Length of Day
8h 19m
Full, 100% of the Moon is Illuminated
Dec 17
Full
Dec 25
Last Quarter
Jan 1
New
Jan 7
First Quarter
Jan 15
Full

Hourly Weather History & Observations

Time (CST) Temp. Windchill Dew Point Humidity Pressure Visibility Wind Dir Wind Speed Gust Speed Precip Events Conditions
12:15 AM 28.4 °F 14.7 °F 21.2 °F 74% 29.79 in 10.0 mi WNW 21.9 mph 28.8 mph N/A   Clear
12:35 AM 28.4 °F 14.1 °F 21.2 °F 74% 29.80 in 9.0 mi WNW 24.2 mph 29.9 mph N/A   Clear
12:55 AM 28.4 °F 14.7 °F 19.4 °F 69% 29.80 in 10.0 mi WNW 21.9 mph 28.8 mph N/A   Clear
1:15 AM 26.6 °F 11.4 °F 19.4 °F 74% 29.79 in 8.0 mi WNW 25.3 mph 33.4 mph N/A   Clear
1:35 AM 26.6 °F 10.8 °F 19.4 °F 74% 29.79 in 5.0 mi WNW 27.6 mph 35.7 mph N/A   Haze
1:55 AM 26.6 °F 10.8 °F 19.4 °F 74% 29.79 in 5.0 mi WNW 27.6 mph 35.7 mph N/A   Haze
2:15 AM 26.6 °F 11.4 °F 19.4 °F 74% 29.80 in 4.0 mi WNW 25.3 mph 39.1 mph N/A Rain Light Freezing Rain
2:35 AM 26.6 °F 10.3 °F 19.4 °F 74% 29.81 in 3.0 mi WNW 29.9 mph 36.8 mph N/A   Haze
2:55 AM 26.6 °F 10.8 °F 19.4 °F 74% 29.81 in 3.0 mi WNW 27.6 mph 38.0 mph N/A   Haze
3:15 AM 26.6 °F 10.8 °F 19.4 °F 74% 29.81 in 2.5 mi WNW 27.6 mph 38.0 mph N/A   Haze
3:35 AM 26.6 °F 11.7 °F 19.4 °F 74% 29.82 in 5.0 mi WNW 24.2 mph 33.4 mph N/A   Haze
3:55 AM 26.6 °F 10.0 °F 21.2 °F 80% 29.83 in 2.0 mi WNW 31.1 mph 36.8 mph N/A Snow Light Snow
4:15 AM 21.2 °F 5.6 °F 19.4 °F 93% 29.87 in 0.8 mi NNW 20.7 mph 28.8 mph N/A Snow Light Snow
4:35 AM 19.4 °F 2.5 °F 17.6 °F 93% 29.89 in 0.8 mi NNW 23.0 mph 31.1 mph N/A Snow Light Snow
4:55 AM 17.6 °F 0.1 °F 15.8 °F 93% 29.91 in 0.5 mi NNW 23.0 mph 29.9 mph N/A Snow Snow
5:15 AM 15.8 °F -3.1 °F 12.2 °F 86% 29.93 in 1.0 mi North 25.3 mph 31.1 mph N/A Snow Light Snow
5:35 AM 14.0 °F -4.3 °F 10.4 °F 86% 29.95 in 2.0 mi North 21.9 mph 34.5 mph N/A Snow Light Snow
5:55 AM 12.2 °F -6.7 °F 8.6 °F 85% 29.95 in 1.5 mi North 21.9 mph 28.8 mph N/A Snow Light Snow
6:15 AM 10.4 °F -7.7 °F 6.8 °F 85% 29.97 in 4.0 mi North 18.4 mph 24.2 mph N/A Snow Light Snow
6:35 AM 10.4 °F -7.2 °F 6.8 °F 85% 29.99 in 2.5 mi North 17.3 mph 24.2 mph N/A Snow Light Snow
6:55 AM 10.4 °F -7.7 °F 6.8 °F 85% 30.00 in 4.0 mi North 18.4 mph - N/A Snow Light Snow
7:15 AM 10.4 °F -7.2 °F 5.0 °F 79% 30.01 in 3.0 mi North 17.3 mph 25.3 mph N/A Rain Light Freezing Rain
7:35 AM 8.6 °F -10.5 °F 5.0 °F 85% 30.02 in 3.0 mi North 19.6 mph - N/A Snow Light Snow
7:55 AM 8.6 °F -8.9 °F 3.2 °F 79% 30.03 in 7.0 mi North 16.1 mph 24.2 mph N/A Rain Light Freezing Rain
8:15 AM 6.8 °F -11.3 °F 1.4 °F 79% 30.03 in 7.0 mi North 16.1 mph 20.7 mph N/A Rain Light Freezing Rain
8:35 AM 6.8 °F -11.8 °F 1.4 °F 79% 30.05 in 7.0 mi North 17.3 mph 20.7 mph N/A Rain Light Freezing Rain
8:55 AM 6.8 °F -11.3 °F 1.4 °F 79% 30.06 in 7.0 mi North 16.1 mph - N/A Rain Light Freezing Rain
9:15 AM 6.8 °F -8.6 °F -0.4 °F 72% 30.08 in 9.0 mi North 11.5 mph - N/A   Overcast
9:35 AM 6.8 °F -10.7 °F -0.4 °F 72% 30.08 in 9.0 mi North 15.0 mph - N/A   Overcast
9:55 AM 5.0 °F -10.8 °F -0.4 °F 78% 30.09 in 9.0 mi North 11.5 mph - N/A   Overcast
10:15 AM 5.0 °F -10.8 °F -0.4 °F 78% 30.10 in 7.0 mi North 11.5 mph - N/A   Overcast
10:35 AM 5.0 °F -11.6 °F -0.4 °F 78% 30.11 in 10.0 mi North 12.7 mph - N/A   Overcast
10:55 AM 5.0 °F -12.3 °F -0.4 °F 78% 30.10 in 10.0 mi North 13.8 mph 18.4 mph N/A   Mostly Cloudy
11:15 AM 5.0 °F -9.1 °F -0.4 °F 78% 30.10 in 10.0 mi North 9.2 mph - N/A   Partly Cloudy
11:35 AM 5.0 °F -10.0 °F -2.2 °F 72% 30.10 in 10.0 mi North 10.4 mph - N/A   Clear
11:55 AM 5.0 °F -9.1 °F -2.2 °F 72% 30.10 in 10.0 mi North 9.2 mph - N/A   Clear
12:15 PM 5.0 °F -10.8 °F -2.2 °F 72% 30.10 in 10.0 mi North 11.5 mph - N/A   Scattered Clouds
12:35 PM 5.0 °F -10.0 °F -2.2 °F 72% 30.10 in 10.0 mi North 10.4 mph - N/A   Partly Cloudy
12:55 PM 5.0 °F -9.1 °F -4.0 °F 66% 30.09 in 10.0 mi North 9.2 mph - N/A   Clear
1:15 PM 5.0 °F -6.9 °F -4.0 °F 66% 30.09 in 10.0 mi North 6.9 mph - N/A   Clear
1:35 PM 5.0 °F -5.6 °F -4.0 °F 66% 30.09 in 10.0 mi North 5.8 mph - N/A   Clear
1:55 PM 5.0 °F -6.9 °F -4.0 °F 66% 30.09 in 10.0 mi North 6.9 mph - N/A   Clear
2:15 PM 5.0 °F - -4.0 °F 66% 30.08 in 10.0 mi Calm Calm - N/A   Clear
2:35 PM 5.0 °F - -4.0 °F 66% 30.08 in 10.0 mi Calm Calm - N/A   Clear
2:55 PM 5.0 °F - -4.0 °F 66% 30.08 in 10.0 mi Calm Calm - N/A   Clear
3:15 PM 3.2 °F -4.2 °F -4.0 °F 72% 30.08 in 10.0 mi East 3.5 mph - N/A   Clear
3:35 PM 3.2 °F -6.2 °F -4.0 °F 72% 30.08 in 10.0 mi ESE 4.6 mph - N/A   Clear
3:55 PM 3.2 °F -6.2 °F -4.0 °F 72% 30.08 in 10.0 mi ESE 4.6 mph - N/A   Clear
4:15 PM 3.2 °F -4.2 °F -2.2 °F 78% 30.09 in 10.0 mi ESE 3.5 mph - N/A   Clear
4:35 PM 1.4 °F -8.3 °F -4.0 °F 78% 30.09 in 10.0 mi SE 4.6 mph - N/A   Clear
4:55 PM -0.4 °F -10.4 °F -4.0 °F 85% 30.08 in 10.0 mi SSE 4.6 mph - N/A   Clear
5:15 PM -0.4 °F -13.4 °F -4.0 °F 85% 30.08 in 10.0 mi SSE 6.9 mph - N/A   Clear
5:35 PM -0.4 °F -12.0 °F -5.8 °F 78% 30.08 in 10.0 mi SSE 5.8 mph - N/A   Clear
5:55 PM -0.4 °F -12.0 °F -5.8 °F 78% 30.07 in 10.0 mi SSE 5.8 mph - N/A   Clear
6:15 PM -2.2 °F -16.8 °F -7.6 °F 78% 30.06 in 10.0 mi SSE 8.1 mph - N/A   Clear
6:35 PM -2.2 °F -16.8 °F -7.6 °F 78% 30.04 in 10.0 mi SSE 8.1 mph - N/A   Clear
6:55 PM -2.2 °F -15.6 °F -7.6 °F 78% 30.04 in 10.0 mi SSE 6.9 mph - N/A   Mostly Cloudy
7:15 PM -0.4 °F -15.7 °F -4.0 °F 85% 30.02 in 10.0 mi SSE 9.2 mph - N/A   Overcast
7:35 PM 1.4 °F -12.5 °F -2.2 °F 85% 30.01 in 10.0 mi South 8.1 mph - N/A   Overcast
7:55 PM 1.4 °F -13.5 °F -2.2 °F 85% 30.01 in 6.0 mi South 9.2 mph - N/A   Overcast
8:15 PM 1.4 °F -13.5 °F -2.2 °F 85% 30.00 in 7.0 mi SSE 9.2 mph - N/A   Partly Cloudy
8:35 PM 1.4 °F -13.5 °F -2.2 °F 85% 29.98 in 10.0 mi SSE 9.2 mph - N/A   Clear
8:55 PM 1.4 °F -14.5 °F -2.2 °F 85% 29.97 in 10.0 mi SSE 10.4 mph - N/A   Clear
9:15 PM 3.2 °F -12.2 °F -0.4 °F 85% 29.96 in 10.0 mi SSE 10.4 mph - N/A   Scattered Clouds
9:35 PM 3.2 °F -12.2 °F -0.4 °F 85% 29.95 in 10.0 mi SSE 10.4 mph - N/A   Mostly Cloudy
9:55 PM 5.0 °F -10.0 °F -0.4 °F 78% 29.94 in 10.0 mi SSE 10.4 mph - N/A   Overcast
10:15 PM 5.0 °F -10.8 °F -0.4 °F 78% 29.93 in 10.0 mi SSE 11.5 mph - N/A   Mostly Cloudy
10:35 PM 5.0 °F -12.3 °F 1.4 °F 85% 29.92 in 10.0 mi SSE 13.8 mph - N/A   Scattered Clouds
10:55 PM 5.0 °F -11.6 °F 1.4 °F 85% 29.91 in 10.0 mi SSE 12.7 mph - N/A   Scattered Clouds
11:15 PM 5.0 °F -14.2 °F 1.4 °F 85% 29.90 in 9.0 mi South 17.3 mph - N/A   Mostly Cloudy
11:35 PM 5.0 °F -13.6 °F 1.4 °F 85% 29.89 in 10.0 mi South 16.1 mph - N/A   Mostly Cloudy
11:55 PM 5.0 °F -13.0 °F 1.4 °F 85% 29.87 in 10.0 mi SSE 15.0 mph - N/A   Overcast